When you browse on this site, cookies collect data to enhance your experience and personalize the content and advertising you see.
Visit our Privacy Policy to learn more. By continuing to use the site, you agree to this use of cookies and data.
  • In France
  • List of Countries
  • For 7 days
  • Water Temperature
  • Weather Map
  • Weather Widgets
  • user-avatar
    Login

    Hourly Weather Wilkes-Barre

    Today, 26 May, Tuesday

    Time Temperature Precipitation Wind Pressure Humidity
    00:00 +18°C° 0 mm 1 mps 747 mmHg 97%
    01:00 +18°C° 0 mm 1 mps 748 mmHg 97%
    02:00 +16°C° 0 mm 1 mps 747 mmHg 97%
    03:00 +16°C° 0 mm 1 mps 747 mmHg 98%
    04:00 +16°C° 0 mm 1 mps 747 mmHg 98%
    05:00 +18°C° 0 mm 1 mps 748 mmHg 95%
    06:00 +20°C° 0 mm 1 mps 748 mmHg 92%
    07:00 +21°C° 0 mm 1 mps 748 mmHg 90%
    08:00 +23°C° 0 mm 1 mps 748 mmHg 81%
    09:00 +26°C° 0 mm 1 mps 748 mmHg 72%
    10:00 +28°C° 0 mm 1 mps 748 mmHg 62%
    11:00 +29°C° 0.1 mm 1 mps 748 mmHg 60%
    12:00 +30°C° 0.1 mm 1 mps 748 mmHg 57%
    13:00 +31°C° 0.1 mm 2 mps 748 mmHg 55%
    14:00 +30°C° 0.6 mm 2 mps 747 mmHg 63%
    15:00 +29°C° 0.6 mm 2 mps 747 mmHg 72%
    16:00 +28°C° 0.6 mm 2 mps 747 mmHg 81%
    17:00 +27°C° 0.2 mm 2 mps 747 mmHg 84%
    18:00 +26°C° 0.2 mm 2 mps 747 mmHg 88%
    19:00 +24°C° 0.2 mm 1 mps 747 mmHg 91%
    20:00 +23°C° 0 mm 1 mps 747 mmHg 93%
    21:00 +22°C° 0 mm 1 mps 748 mmHg 94%
    22:00 +21°C° 0 mm 1 mps 748 mmHg 96%
    23:00 +21°C° 0 mm 1 mps 748 mmHg 96%

    Tomorrow, 27 May, Wednesday

    Time Temperature Precipitation Wind Pressure Humidity
    00:00 +20°C° 0 mm 1 mps 748 mmHg 97%
    01:00 +20°C° 0 mm 1 mps 748 mmHg 97%
    02:00 +20°C° 0 mm 1 mps 748 mmHg 97%
    03:00 +19°C° 0 mm 1 mps 748 mmHg 98%
    04:00 +19°C° 0 mm 1 mps 748 mmHg 98%
    05:00 +20°C° 0 mm 1 mps 748 mmHg 97%
    06:00 +21°C° 0 mm 1 mps 749 mmHg 96%
    07:00 +21°C° 0 mm 1 mps 749 mmHg 95%
    08:00 +22°C° 0 mm 1 mps 749 mmHg 88%
    09:00 +23°C° 0 mm 1 mps 749 mmHg 81%
    10:00 +25°C° 0 mm 2 mps 749 mmHg 74%
    11:00 +25°C° 0 mm 2 mps 749 mmHg 70%
    12:00 +26°C° 0 mm 3 mps 749 mmHg 65%
    13:00 +27°C° 0 mm 3 mps 748 mmHg 60%
    14:00 +27°C° 0 mm 3 mps 748 mmHg 62%
    15:00 +26°C° 0 mm 3 mps 748 mmHg 64%
    16:00 +26°C° 0 mm 3 mps 747 mmHg 66%
    17:00 +25°C° 0 mm 3 mps 748 mmHg 73%
    18:00 +24°C° 0 mm 2 mps 748 mmHg 80%
    19:00 +21°C° 0 mm 2 mps 748 mmHg 87%
    20:00 +20°C° 0 mm 2 mps 748 mmHg 90%
    21:00 +19°C° 0 mm 2 mps 748 mmHg 93%
    22:00 +19°C° 0 mm 1 mps 748 mmHg 96%
    23:00 +20°C° 0 mm 1 mps 748 mmHg 96%

    Day after tomorrow, 28 May, Thursday

    Time Temperature Precipitation Wind Pressure Humidity
    00:00 +19°C° 0 mm 2 mps 748 mmHg 97%
    01:00 +19°C° 0 mm 2 mps 748 mmHg 97%
    02:00 +19°C° 0.1 mm 2 mps 748 mmHg 97%
    03:00 +20°C° 0.1 mm 2 mps 748 mmHg 97%
    04:00 +20°C° 0.1 mm 2 mps 748 mmHg 97%
    05:00 +20°C° 0.3 mm 2 mps 748 mmHg 97%
    06:00 +20°C° 0.3 mm 2 mps 748 mmHg 97%
    07:00 +20°C° 0.3 mm 2 mps 748 mmHg 98%
    08:00 +20°C° 0.4 mm 2 mps 747 mmHg 97%
    09:00 +20°C° 0.4 mm 2 mps 747 mmHg 97%
    10:00 +20°C° 0.4 mm 3 mps 747 mmHg 97%
    11:00 +20°C° 0.2 mm 3 mps 747 mmHg 97%
    12:00 +21°C° 0.2 mm 3 mps 747 mmHg 97%
    13:00 +21°C° 0.2 mm 3 mps 746 mmHg 96%
    14:00 +21°C° 0 mm 3 mps 746 mmHg 95%
    15:00 +22°C° 0 mm 3 mps 746 mmHg 94%
    16:00 +22°C° 0 mm 3 mps 745 mmHg 92%
    17:00 +22°C° 0.1 mm 3 mps 745 mmHg 93%
    18:00 +22°C° 0.1 mm 3 mps 745 mmHg 94%
    19:00 +22°C° 0.1 mm 3 mps 745 mmHg 95%
    20:00 +22°C° 0.3 mm 3 mps 745 mmHg 96%
    21:00 +22°C° 0.3 mm 3 mps 745 mmHg 97%
    22:00 +22°C° 0.3 mm 3 mps 744 mmHg 98%
    23:00 +22°C° 0.2 mm 3 mps 744 mmHg 98%

    29 May, Friday

    Time Temperature Precipitation Wind Pressure Humidity
    00:00 +22°C° 0.2 mm 3 mps 744 mmHg 98%
    01:00 +22°C° 0.2 mm 3 mps 744 mmHg 98%
    02:00 +22°C° 0.1 mm 3 mps 743 mmHg 98%
    03:00 +22°C° 0.1 mm 3 mps 743 mmHg 98%
    04:00 +22°C° 0.1 mm 3 mps 743 mmHg 98%
    05:00 +22°C° 0.1 mm 3 mps 743 mmHg 98%
    06:00 +22°C° 0.1 mm 3 mps 743 mmHg 97%
    07:00 +24°C° 0.1 mm 3 mps 743 mmHg 97%
    08:00 +24°C° 0.1 mm 3 mps 743 mmHg 94%
    09:00 +25°C° 0.1 mm 3 mps 743 mmHg 91%
    10:00 +26°C° 0.1 mm 3 mps 743 mmHg 89%
    11:00 +26°C° 1.2 mm 4 mps 743 mmHg 89%
    12:00 +26°C° 1.2 mm 4 mps 742 mmHg 90%
    13:00 +27°C° 1.2 mm 4 mps 742 mmHg 90%
    14:00 +26°C° 1.1 mm 4 mps 741 mmHg 88%
    15:00 +26°C° 1.1 mm 3 mps 741 mmHg 86%
    16:00 +26°C° 1.1 mm 3 mps 741 mmHg 84%
    17:00 +26°C° 0.3 mm 3 mps 741 mmHg 86%
    18:00 +25°C° 0.3 mm 3 mps 740 mmHg 88%
    19:00 +24°C° 0.3 mm 2 mps 740 mmHg 90%
    20:00 +24°C° 0.2 mm 2 mps 741 mmHg 91%
    21:00 +23°C° 0.2 mm 2 mps 741 mmHg 92%
    22:00 +21°C° 0.2 mm 2 mps 741 mmHg 93%
    23:00 +22°C° 0.1 mm 1 mps 741 mmHg 94%

    30 May, Saturday

    Time Temperature Precipitation Wind Pressure Humidity
    00:00 +21°C° 0.1 mm 1 mps 740 mmHg 95%
    01:00 +21°C° 0.1 mm 1 mps 740 mmHg 95%
    02:00 +20°C° 0 mm 1 mps 740 mmHg 96%
    03:00 +18°C° 0 mm 0 mps 740 mmHg 96%
    04:00 +18°C° 0 mm 0 mps 740 mmHg 96%
    05:00 +18°C° 0.1 mm 0 mps 740 mmHg 97%
    06:00 +18°C° 0.1 mm 0 mps 740 mmHg 97%
    07:00 +19°C° 0.1 mm 0 mps 740 mmHg 97%
    08:00 +19°C° 0.8 mm 0 mps 740 mmHg 97%
    09:00 +19°C° 0.8 mm 0 mps 740 mmHg 97%
    10:00 +19°C° 0.8 mm 0 mps 740 mmHg 97%
    11:00 +20°C° 1.1 mm 1 mps 740 mmHg 97%
    12:00 +18°C° 1.1 mm 2 mps 740 mmHg 97%
    13:00 +17°C° 1.1 mm 3 mps 739 mmHg 96%
    14:00 +16°C° 1.6 mm 2 mps 739 mmHg 96%
    15:00 +16°C° 1.6 mm 2 mps 739 mmHg 96%
    16:00 +15°C° 1.6 mm 2 mps 739 mmHg 95%
    17:00 +15°C° 0 mm 2 mps 739 mmHg 95%
    18:00 +15°C° 0 mm 2 mps 739 mmHg 94%
    19:00 +16°C° 0 mm 2 mps 740 mmHg 93%
    20:00 +15°C° 0 mm 2 mps 740 mmHg 93%
    21:00 +14°C° 0 mm 2 mps 741 mmHg 93%
    22:00 +13°C° 0 mm 2 mps 742 mmHg 93%
    23:00 +12°C° 0 mm 2 mps 741 mmHg 92%

    31 May, Sunday

    Time Temperature Precipitation Wind Pressure Humidity
    00:00 +10°C° 0 mm 2 mps 741 mmHg 92%
    01:00 +9°C° 0 mm 3 mps 741 mmHg 91%
    02:00 +9°C° 0 mm 2 mps 742 mmHg 92%
    03:00 +8°C° 0 mm 2 mps 742 mmHg 93%
    04:00 +8°C° 0 mm 2 mps 742 mmHg 94%
    05:00 +9°C° 0 mm 3 mps 743 mmHg 89%
    06:00 +10°C° 0 mm 3 mps 743 mmHg 83%
    07:00 +11°C° 0 mm 4 mps 744 mmHg 78%
    08:00 +12°C° 0 mm 4 mps 744 mmHg 67%
    09:00 +14°C° 0 mm 5 mps 744 mmHg 56%
    10:00 +15°C° 0 mm 5 mps 744 mmHg 44%
    11:00 +16°C° 0 mm 5 mps 744 mmHg 41%
    12:00 +16°C° 0 mm 5 mps 744 mmHg 38%
    13:00 +17°C° 0 mm 6 mps 743 mmHg 35%
    14:00 +17°C° 0 mm 6 mps 743 mmHg 36%
    15:00 +16°C° 0 mm 5 mps 743 mmHg 36%
    16:00 +16°C° 0 mm 5 mps 743 mmHg 37%
    17:00 +15°C° 0 mm 5 mps 744 mmHg 43%
    18:00 +13°C° 0 mm 4 mps 744 mmHg 50%
    19:00 +11°C° 0 mm 3 mps 744 mmHg 56%
    20:00 +10°C° 0 mm 2 mps 745 mmHg 61%
    21:00 +9°C° 0 mm 2 mps 746 mmHg 65%
    22:00 +7°C° 0 mm 2 mps 746 mmHg 70%
    23:00 +8°C° 0 mm 1 mps 746 mmHg 75%
    Show more